Location: Montr�al
(45.5000°N, 73.5830°W)
Time: 13:10:49
(UTC-05:00)

ISS - Visible Passes

Search period start: 20 January 2017 00:00
Search period end: 30 January 2017 00:00
Orbit: 399 x 410 km, 51.6° (Epoch: 21 January)

Date Brightness Start Highest point End Pass type
(mag) Time Alt. Az. Time Alt. Az. Time Alt. Az.
20 Jan -0.5 05:09:18 12° SSE 05:09:18 12° SSE 05:09:35 10° SSE visible
27 Jan -1.0 18:52:19 10° SSW 18:53:20 16° S 18:53:20 16° S visible
28 Jan -1.2 18:01:11 10° SSE 18:02:53 13° SE 18:03:34 13° ESE visible
28 Jan -0.3 19:35:38 10° WSW 19:36:15 15° WSW 19:36:15 15° WSW visible
29 Jan -2.9 18:43:27 10° SW 18:46:22 48° SSE 18:46:22 48° SSE visible
